Content
SEND FEEDBACK

Daily
Averages
Monthly
Summary
French Polynesia

FAAA, FRENCH POLYNESIA


Home > Oceania > French Polynesia
Elevation: 7 feet     Latitude: 17 33S     Longitude: 149 37W

WEATHER
 
SELECT A DAY
Number of Records: 207,916;   Date Range: 6/30/96 - 7/11/14
 
SHARE

PRINT THIS DATA

[ ← Previous Day ]
WEATHER ALMANAC - MARCH 17, 2013
[ Next Day → ]
[ °C ]   °F
Weather ElementAverageHighLow
Temperature82.9 °F89.6 °F (3:30 pm)77 °F (4:30 am)
Dewpoint72.3 °F75.2 °F (11:30 am)69.8 °F (5:00 am)
Humidity69.6 %83 % (2:00 am)54 % (11:00 am)
Barometer29.92 in29.98 in (8:30 am)29.86 in (3:00 pm)
Wind Speed4.7 mph9.2 mph (1:00 pm)
Weather ElementAverage
Visibility7.7 mi
Wind DirectionSSE (153.9 °)

Weather ElementTotal
Precipitation---
Cooling Degree Days18.3 (Base 65)
Growing Degree Days33.3 (Base 50)
Averaged from 54 records on March 17, 2013
WEATHER CONDITIONS BREAKOUT
WIND DIRECTION BREAKOUT
WEATHER BY HOUR - MARCH 17, 2013
[ °C ]   °F
Local TimeTemperatureDewpointHumidityBarometerVisibilityWind DirectionWind SpeedGust SpeedPrecipitationEventsConditions
12:30 AM80.6 °F71.6 °F74 %29.92 in6.2 miSSE (150°)3.5 mphPartly Cloudy
1:00 AM80.6 °F71.6 °F74 %29.92 in6.2 miVariable2.3 mphPartly Cloudy
1:30 AM78.8 °F71.6 °F78 %29.92 in6.2 miCalmPartly Cloudy
2:00 AM79.0 °F72.0 °F75 %29.92 in12.0 miSSE (150°)6.7 mphScattered Clouds
2:00 AM78.8 °F73.4 °F83 %29.92 in6.2 miVariable3.5 mphPartly Cloudy
2:30 AM80.6 °F73.4 °F79 %29.89 in6.2 miSSE (150°)4.6 mphPartly Cloudy
3:00 AM80.6 °F71.6 °F74 %29.89 in6.2 miSSE (160°)5.8 mphPartly Cloudy
3:30 AM78.8 °F71.6 °F78 %29.89 in6.2 miEast (80°)3.5 mph
4:00 AM78.8 °F71.6 °F78 %29.92 in6.2 miEast (90°)3.5 mph
4:30 AM77.0 °F71.6 °F83 %29.92 in6.2 miEast (100°)4.6 mph
5:00 AM77.0 °F71.0 °F75 %29.93 in19.0 miEast (90°)2.3 mphClear
5:00 AM77.0 °F69.8 °F78 %29.92 in6.2 miEast (90°)2.3 mph
5:30 AM77.0 °F69.8 °F78 %29.92 in6.2 miEast (90°)3.5 mph
6:00 AM77.0 °F69.8 °F78 %29.95 in6.2 miVariable2.3 mphPartly Cloudy
6:30 AM77.0 °F71.6 °F83 %29.95 in6.2 miSouth (180°)1.2 mphPartly Cloudy
7:00 AM78.8 °F71.6 °F78 %29.95 in6.2 miSouth (190°)2.3 mphPartly Cloudy
7:30 AM82.4 °F71.6 °F70 %29.95 in6.2 miSouth (180°)3.5 mphPartly Cloudy
8:00 AM83.0 °F73.0 °F64 %29.97 in19.0 miSSW (210°)6.7 mphPartly Cloudy
8:00 AM84.2 °F73.4 °F70 %29.95 in6.2 miSSW (210°)3.5 mphPartly Cloudy
8:30 AM84.2 °F73.4 °F70 %29.98 in6.2 miVariable2.3 mphPartly Cloudy
9:00 AM84.2 °F73.4 °F70 %29.98 in6.2 miNW (320°)3.5 mphScattered Clouds
9:30 AM84.2 °F73.4 °F70 %29.98 in6.2 miNorth (10°)4.6 mphScattered Clouds
10:00 AM86.0 °F73.4 °F66 %29.95 in6.2 miNNW (340°)5.8 mphPartly Cloudy
10:30 AM86.0 °F73.4 °F66 %29.95 in6.2 miWNW (290°)4.6 mphPartly Cloudy
11:00 AM87.0 °F73.0 °F54 %29.95 in19.0 miSW (230°)6.9 mphPartly Cloudy
11:00 AM86.0 °F73.4 °F66 %29.95 in6.2 miSW (230°)6.9 mphPartly Cloudy
11:30 AM87.8 °F75.2 °F66 %29.92 in6.2 miSW (230°)5.8 mphPartly Cloudy
12:00 PM87.8 °F75.2 °F66 %29.92 in6.2 miSW (230°)6.9 mphPartly Cloudy
1:00 PM87.8 °F73.4 °F62 %29.89 in6.2 miSW (220°)9.2 mphPartly Cloudy
1:30 PM87.8 °F73.4 °F62 %29.89 in6.2 miSW (230°)9.2 mphPartly Cloudy
2:00 PM88.0 °F74.0 °F54 %29.90 in19.0 miWest (260°)5.8 mphScattered Clouds
2:00 PM87.8 °F73.4 °F62 %29.89 in6.2 miWest (260°)5.8 mphPartly Cloudy
2:30 PM87.8 °F71.6 °F58 %29.89 in6.2 miWSW (240°)9.2 mphPartly Cloudy
3:00 PM87.8 °F71.6 °F58 %29.86 in6.2 miSW (230°)9.2 mphPartly Cloudy
3:30 PM89.6 °F73.4 °F59 %29.86 in6.2 miSW (230°)6.9 mphScattered Clouds
4:00 PM87.8 °F71.6 °F58 %29.86 in6.2 miSSW (200°)9.2 mphScattered Clouds
4:30 PM87.8 °F71.6 °F58 %29.89 in6.2 miSW (220°)8.1 mphScattered Clouds
5:00 PM87.0 °F74.0 °F58 %29.89 in19.0 miSW (230°)5.8 mphPartly Cloudy
5:00 PM87.8 °F73.4 °F62 %29.89 in6.2 miSW (230°)5.8 mphPartly Cloudy
5:30 PM86.0 °F71.6 °F62 %29.89 in6.2 miSW (230°)5.8 mphPartly Cloudy
6:00 PM84.2 °F71.6 °F66 %29.89 in6.2 miSW (220°)6.9 mphPartly Cloudy
6:30 PM84.2 °F73.4 °F70 %29.89 in6.2 miSSW (210°)8.1 mphPartly Cloudy
7:00 PM84.2 °F71.6 °F66 %29.92 in6.2 miSSW (200°)6.9 mphPartly Cloudy
7:30 PM82.4 °F73.4 °F74 %29.92 in6.2 miSW (220°)4.6 mphPartly Cloudy
8:00 PM82.0 °F72.0 °F65 %29.93 in12.0 miEast (100°)4.5 mphScattered Clouds
8:00 PM82.4 °F71.6 °F70 %29.92 in6.2 miVariable2.3 mphPartly Cloudy
8:30 PM82.4 °F71.6 °F70 %29.92 in6.2 miVariable2.3 mphPartly Cloudy
9:00 PM80.6 °F73.4 °F79 %29.92 in6.2 miEast (80°)3.5 mphPartly Cloudy
9:30 PM80.6 °F71.6 °F74 %29.92 in6.2 miEast (100°)3.5 mphPartly Cloudy
10:00 PM80.6 °F71.6 °F74 %29.92 in6.2 miVariable2.3 mphPartly Cloudy
10:30 PM80.6 °F71.6 °F74 %29.92 in6.2 miCalmPartly Cloudy
11:00 PM80.0 °F71.0 °F69 %29.94 in12.0 miSSW (200°)2.3 mphScattered Clouds
11:00 PM80.6 °F71.6 °F74 %29.92 in6.2 miSSW (200°)2.3 mphPartly Cloudy
11:30 PM78.8 °F71.6 °F78 %29.92 in6.2 miCalmPartly Cloudy
Hourly data recorded from NTAA, located miles away from Faaa, French Polynesia







STORIES FROM OUR PARTNERS